TimeAKST,TemperatureF,Dew PointF,Humidity,Sea Level PressureIn,VisibilityMPH,Wind Direction,Wind SpeedMPH,Gust SpeedMPH,PrecipitationIn,Events,Conditions,WindDirDegrees,DateUTC
12:53 AM,10.0,3.0,73,29.68,10.0,North,12.7,-,N/A,,Clear,360,2012-12-23 09:53:00
1:53 AM,9.0,3.0,77,29.67,10.0,North,13.8,-,N/A,,Clear,350,2012-12-23 10:53:00
3:53 AM,10.9,3.0,70,29.65,10.0,North,13.8,23.0,N/A,,Clear,10,2012-12-23 12:53:00
4:53 AM,12.9,5.0,71,29.64,10.0,North,15.0,23.0,N/A,,Clear,360,2012-12-23 13:53:00
5:53 AM,12.0,3.9,70,29.62,10.0,North,16.1,24.2,N/A,,Clear,360,2012-12-23 14:53:00
6:53 AM,12.9,3.9,67,29.61,10.0,North,18.4,27.6,N/A,,Mostly Cloudy,360,2012-12-23 15:53:00
7:53 AM,12.9,5.0,71,29.60,10.0,North,12.7,-,N/A,,Overcast,360,2012-12-23 16:53:00
8:53 AM,14.0,5.0,67,29.60,10.0,NNW,12.7,-,N/A,,Overcast,340,2012-12-23 17:53:00
9:53 AM,15.1,6.1,68,29.59,10.0,NNW,13.8,-,N/A,,Overcast,340,2012-12-23 18:53:00
10:53 AM,19.0,9.0,65,29.58,10.0,North,8.1,-,N/A,,Overcast,350,2012-12-23 19:53:00
11:53 AM,23.0,12.0,63,29.57,10.0,North,9.2,-,N/A,,Overcast,10,2012-12-23 20:53:00
12:53 PM,30.0,16.0,56,29.57,10.0,NW,10.4,-,N/A,,Overcast,320,2012-12-23 21:53:00
1:53 PM,28.9,17.1,61,29.56,10.0,NNW,10.4,-,N/A,,Overcast,330,2012-12-23 22:53:00
2:53 PM,30.0,16.0,56,29.54,10.0,NNW,18.4,26.5,N/A,,Mostly Cloudy,340,2012-12-23 23:53:00
3:53 PM,30.0,16.0,56,29.53,10.0,North,13.8,-,N/A,,Scattered Clouds,350,2012-12-24 00:53:00
4:53 PM,30.9,16.0,54,29.53,10.0,NW,12.7,18.4,N/A,,Mostly Cloudy,320,2012-12-24 01:53:00
5:53 PM,32.0,17.1,54,29.53,10.0,NNW,9.2,20.7,N/A,,Overcast,330,2012-12-24 02:53:00
6:53 PM,30.9,16.0,54,29.52,10.0,North,16.1,23.0,N/A,,Scattered Clouds,350,2012-12-24 03:53:00
7:53 PM,32.0,16.0,52,29.51,10.0,NNW,15.0,21.9,N/A,,Overcast,340,2012-12-24 04:53:00
8:53 PM,32.0,17.1,54,29.49,10.0,North,15.0,23.0,N/A,,Mostly Cloudy,360,2012-12-24 05:53:00
9:53 PM,32.0,17.1,54,29.48,10.0,NNW,13.8,21.9,N/A,,Overcast,340,2012-12-24 06:53:00
10:53 PM,33.1,16.0,50,29.47,10.0,North,12.7,24.2,N/A,,Overcast,360,2012-12-24 07:53:00
11:53 PM,32.0,18.0,56,29.46,10.0,North,15.0,24.2,N/A,,Overcast,350,2012-12-24 08:53:00